This demonstration page uses our WeatherBlox Daily Observations layout. Learn more.

Left ArrowRight Arrow

41.86663, -103.66717

Hourly Observations for November 29, 2021

Temp ( °F °C ) Dew Point ( °F °C ) Humidity (%) Winds ( mph kmh ) Pressure ( in mb ) Visibility ( mi km ) Precip ( " mm )
12:53 am 00:53 Clear 36 2.2 26 -3.3 67 67 NNW 8 13 30.02 1017 10 16 0.00 0.00
1:53 am 01:53 Clear 43 6.1 27 -2.8 53 53 WNW 12 19 29.99 1016 10 16 0.00 0.00
2:53 am 02:53 Clear 47 8.3 28 -2.2 48 48 WNW 9 15 29.97 1015 10 16 0.00 0.00
3:53 am 03:53 Clear 43 6.1 27 -2.8 53 53 WNW 9 15 29.99 1016 10 16 0.00 0.00
4:53 am 04:53 Clear 41 5 27 -2.8 57 57 NNW 3 6 30.02 1017 10 16 0.00 0.00
5:53 am 05:53 Clear 46 7.8 27 -2.8 47 47 NW 7 11 30.03 1017 10 16 0.00 0.00
6:53 am 06:53 Clear 40 4.4 26 -3.3 58 58 NW 6 9 30.07 1018 10 16 0.00 0.00
7:53 am 07:53 Sunny 39 3.9 26 -3.3 60 60 Calm 30.12 1020 10 16 0.00 0.00
8:53 am 08:53 Sunny 51 10.6 29 -1.7 43 43 NW 5 7 30.09 1019 10 16 0.00 0.00
9:53 am 09:53 Sunny 59 15 29 -1.7 32 32 WNW 10 17 30.06 1018 10 16 0.00 0.00
10:53 am 10:53 Sunny 63 17.2 27 -2.8 26 26 W 15 24 30.06 1018 10 16 0.00 0.00
11:53 am 11:53 Sunny 66 18.9 27 -2.8 23 23 W 10 17 30.04 1017 10 16 0.00 0.00
12:53 pm 12:53 Sunny 68 20 26 -3.3 21 21 NW 8 13 30.01 1016 10 16 0.00 0.00
1:53 pm 13:53 Sunny 68 20 25 -3.9 20 20 WNW 9 15 29.96 1015 10 16 0.00 0.00
2:53 pm 14:53 Sunny 67 19.4 26 -3.3 21 21 NW 7 11 29.94 1014 10 16 0.00 0.00
3:53 pm 15:53 Sunny 62 16.7 27 -2.8 26 26 N 3 6 29.95 1014 10 16 0.00 0.00
4:53 pm 16:53 Clear 52 11.1 25 -3.9 35 35 E 5 7 29.99 1016 10 16 0.00 0.00
5:53 pm 17:53 Clear 47 8.3 25 -3.9 42 42 ESE 3 6 30.00 1016 10 16 0.00 0.00
6:53 pm 18:53 Clear 43 6.1 24 -4.4 47 47 NE 5 7 30.04 1017 10 16 0.00 0.00
7:53 pm 19:53 Clear 40 4.4 24 -4.4 53 53 E 3 6 30.05 1018 10 16 0.00 0.00
8:53 pm 20:53 Clear 40 4.4 25 -3.9 55 55 Calm 30.02 1017 10 16 0.00 0.00
9:53 pm 21:53 Clear 40 4.4 25 -3.9 55 55 SSE 3 6 30.01 1016 10 16 0.00 0.00
10:53 pm 22:53 Clear 38 3.3 25 -3.9 60 60 N 7 11 30.02 1017 10 16 0.00 0.00
11:53 pm 23:53 Clear 42 5.6 26 -3.3 53 53 N 15 24 30.04 1017 10 16 0.00 0.00

Powered by AerisWeather